sat.trackr.live / text

‹ back to catalog

STARLINK-37413

NORAD 68789 · 2026-086Z

PAYLOAD ACTIVE UNKNOWN

§ Identity

Operator
Country
US
Launch date
2026-04-19
Launch site
AFWTR
Launch vehicle
Mass (kg)
RCS (m²)

Purposes: comms

External: N2YO · Heavens-Above · Gunter

§ Orbital elements

Epoch: 2026-05-25T04:00:03.998880Z

Period
92.03 min
Inclination
97.2847°
Eccentricity
0.0001121
Mean motion
15.64725978 rev/d
Perigee alt
373.3 km
Apogee alt
374.8 km
Semi-major
6,752.2 km
B*
-2.2536e-2
RAAN
182.0415°
Arg perigee
73.7812°
Mean anomaly
312.1477°
Rev number
607

§ Raw data

STARLINK-374131 68789U 26086Z   26145.16671295 -.01930366  00000+0 -22536-1 0  99932 68789  97.2847 182.0415 0001121  73.7812 312.1477 15.64725978  6073

JSON: /api/v1/satellites/68789 · /tle

For live sub-satellite position, see the globe view (requires WebGL).

§ Visibility from observer

Set your observer location to see the next 7 days of passes ≥ 10°. The values pass through the URL so the page stays shareable.

No JS? Fill the form by hand. The geolocation button needs JavaScript.